Вернуться в каталог

ELISA W23

АктивенВоенныеSSO
NORAD 38009·PAYLOAD·🇫🇷 France

Запущен Dec 17, 2011 с Guiana Space Centre

Loading…

Ближайшие Пролёты (ближайшие 24 часа)

TLE

СвежийSource: Space-Track

Эпоха: Sep 14, 2026, 22:15 UTC

1 38009U 11076C   26257.92752440  .00000628  00000-0  11589-3 0  9993
2 38009  97.8498 234.3976 0001206  37.5483 322.5807 14.68640452788505

Отслеживайте ELISA W23 в реальном времени с AllMySat

Download on the App Store